08-09-2023, 00:00:02,    292,    0.0,   18.3,   0.00,   0.00, 1013.9,    0.4, -999.0
08-09-2023, 00:00:12,    292,    0.0,   18.2,   0.00,   0.00, 1013.9,    0.3, -999.0
08-09-2023, 00:00:22,    292,    0.0,   18.2,   0.00,   0.00, 1013.9,    0.2, -999.0
08-09-2023, 00:00:32,    292,    0.0,   18.2,   0.00,   0.00, 1013.9,    0.3, -999.0
08-09-2023, 00:00:42,    291,    0.0,   18.2,   0.00,   0.00, 1013.9,    0.1, -999.0
08-09-2023, 00:00:52,    292,    0.0,   18.2,   0.00,   0.00, 1013.9,    0.4, -999.0
08-09-2023, 00:01:02,    292,    0.0,   18.2,   0.00,   0.00, 1013.9,    0.3, -999.0
08-09-2023, 00:01:12,    292,    0.0,   18.1,   0.00,   0.00, 1013.9,    0.2, -999.0
08-09-2023, 00:01:21,    292,    0.0,   18.2,   0.00,   0.00, 1013.9,    0.4, -999.0
08-09-2023, 00:01:32,    292,    0.0,   18.2,   0.00,   0.00, 1013.9,    0.3, -999.0
08-09-2023, 00:01:42,    291,    0.0,   18.2,   0.00,   0.00, 1013.9,    0.2, -999.0
08-09-2023, 00:01:51,    292,    0.0,   18.2,   0.00,   0.00, 1013.9,    0.3, -999.0
08-09-2023, 00:02:01,    291,    0.0,   18.2,   0.00,   0.00, 1013.9,    0.2, -999.0
08-09-2023, 00:02:12,    292,    0.0,   18.1,   0.00,   0.00, 1013.9,    0.2, -999.0
08-09-2023, 00:02:22,    292,    0.0,   18.1,   0.00,   0.00, 1013.9,    0.3, -999.0
08-09-2023, 00:02:31,    292,    0.0,   18.1,   0.00,   0.00, 1013.9,    0.3, -999.0
08-09-2023, 00:02:42,    292,    0.0,   18.1,   0.00,   0.00, 1013.9,    0.3, -999.0
08-09-2023, 00:02:52,    292,    0.0,   18.1,   0.00,   0.00, 1013.9,    0.2, -999.0
08-09-2023, 00:03:01,    292,    0.0,   18.1,   0.00,   0.00, 1013.9,    0.2, -999.0
08-09-2023, 00:03:11,    292,    0.0,   18.0,   0.00,   0.00, 1013.9,    0.3, -999.0
08-09-2023, 00:03:21,    292,    0.0,   18.1,   0.00,   0.00, 1013.9,    0.2, -999.0
08-09-2023, 00:03:31,    292,    0.0,   18.0,   0.00,   0.00, 1013.9,    0.4, -999.0
08-09-2023, 00:03:41,    292,    0.0,   18.1,   0.00,   0.00, 1013.9,    0.2, -999.0
08-09-2023, 00:03:51,    292,    0.0,   18.0,   0.00,   0.00, 1013.9,    0.3, -999.0
08-09-2023, 00:04:01,    291,    0.0,   18.0,   0.00,   0.00, 1013.9,    0.3, -999.0
08-09-2023, 00:04:11,    292,    0.0,   18.0,   0.00,   0.00, 1013.9,    0.4, -999.0
08-09-2023, 00:04:21,    292,    0.0,   18.0,   0.00,   0.00, 1013.9,    0.2, -999.0
08-09-2023, 00:04:31,    292,    0.0,   18.0,   0.00,   0.00, 1013.9,    0.2, -999.0
08-09-2023, 00:04:41,    292,    0.0,   17.9,   0.00,   0.00, 1013.9,    0.2, -999.0
08-09-2023, 00:04:51,    292,    0.0,   17.9,   0.00,   0.00, 1013.9,    0.2, -999.0
08-09-2023, 00:05:01,    292,    0.0,   17.9,   0.00,   0.00, 1013.9,    0.4, -999.0
08-09-2023, 00:05:11,    292,    0.0,   18.0,   0.00,   0.00, 1013.9,    0.3, -999.0
08-09-2023, 00:05:21,    291,    0.0,   17.9,   0.00,   0.00, 1013.9,    0.4, -999.0
08-09-2023, 00:05:31,    291,    0.0,   17.9,   0.00,   0.00, 1013.9,    0.3, -999.0
08-09-2023, 00:05:41,    291,    0.0,   17.9,   0.00,   0.00, 1013.9,    0.3, -999.0
08-09-2023, 00:05:51,    291,    0.0,   17.9,   0.00,   0.00, 1013.9,    0.3, -999.0
08-09-2023, 00:06:01,    291,    0.0,   17.9,   0.00,   0.00, 1013.9,    0.4, -999.0
08-09-2023, 00:06:11,    291,    0.0,   18.0,   0.00,   0.00, 1013.9,    0.3, -999.0
08-09-2023, 00:06:21,    292,    0.0,   17.9,   0.00,   0.00, 1013.9,    0.5, -999.0
08-09-2023, 00:06:31,    292,    0.0,   17.9,   0.00,   0.00, 1013.9,    0.2, -999.0
08-09-2023, 00:06:41,    291,    0.0,   17.9,   0.00,   0.00, 1013.9,    0.2, -999.0
08-09-2023, 00:06:51,    291,    0.0,   17.9,   0.00,   0.00, 1013.9,    0.1, -999.0
08-09-2023, 00:07:01,    291,    0.0,   17.9,   0.00,   0.00, 1013.9,    0.2, -999.0
08-09-2023, 00:07:10,    291,    0.0,   17.9,   0.00,   0.00, 1013.9,    0.4, -999.0
08-09-2023, 00:07:21,    292,    0.0,   17.9,   0.00,   0.00, 1013.9,    0.3, -999.0
08-09-2023, 00:07:31,    292,    0.0,   17.9,   0.00,   0.00, 1013.9,    0.3, -999.0
08-09-2023, 00:07:40,    292,    0.0,   17.8,   0.00,   0.00, 1013.9,    0.3, -999.0
08-09-2023, 00:07:50,    292,    0.0,   17.8,   0.00,   0.00, 1013.9,    0.4, -999.0
08-09-2023, 00:08:01,    292,    0.0,   17.9,   0.00,   0.00, 1013.9,    0.3, -999.0
08-09-2023, 00:08:10,    292,    0.0,   17.9,   0.00,   0.00, 1013.9,    0.2, -999.0
08-09-2023, 00:08:20,    291,    0.0,   17.8,   0.00,   0.00, 1013.9,    0.1, -999.0
08-09-2023, 00:08:30,    291,    0.0,   17.8,   0.00,   0.00, 1013.9,    0.5, -999.0
08-09-2023, 00:08:41,    292,    0.0,   17.8,   0.00,   0.00, 1013.9,    0.2, -999.0
08-09-2023, 00:08:50,    291,    0.0,   17.8,   0.00,   0.00, 1013.9,    0.2, -999.0
08-09-2023, 00:09:00,    292,    0.0,   17.8,   0.00,   0.00, 1013.9,    0.2, -999.0
08-09-2023, 00:09:11,    292,    0.0,   17.8,   0.00,   0.00, 1013.9,    0.5, -999.0
08-09-2023, 00:09:20,    292,    0.0,   17.8,   0.00,   0.00, 1013.9,    0.6, -999.0
08-09-2023, 00:09:30,    291,    0.0,   17.8,   0.00,   0.00, 1013.9,    0.4, -999.0
08-09-2023, 00:09:40,    291,    0.0,   17.8,   0.00,   0.00, 1013.9,    0.1, -999.0
08-09-2023, 00:09:50,    292,    0.0,   17.8,   0.00,   0.00, 1013.9,    0.3, -999.0
08-09-2023, 00:10:00,    291,    0.0,   17.7,   0.00,   0.00, 1013.9,    0.3, -999.0
08-09-2023, 00:10:10,    292,    0.0,   17.8,   0.00,   0.00, 1013.9,    0.2, -999.0
08-09-2023, 00:10:20,    292,    0.0,   17.8,   0.00,   0.00, 1013.9,    0.3, -999.0
08-09-2023, 00:10:30,    292,    0.0,   17.7,   0.00,   0.00, 1013.9,    0.3, -999.0
08-09-2023, 00:10:40,    292,    0.0,   17.7,   0.00,   0.00, 1013.9,    0.4, -999.0
08-09-2023, 00:10:50,    292,    0.0,   17.7,   0.00,   0.00, 1013.8,    0.3, -999.0
08-09-2023, 00:11:00,    292,    0.0,   17.7,   0.00,   0.00, 1013.9,    0.3, -999.0
08-09-2023, 00:11:10,    292,    0.0,   17.8,   0.00,   0.00, 1013.9,    0.1, -999.0
08-09-2023, 00:11:20,    292,    0.0,   17.7,   0.00,   0.00, 1013.9,    0.2, -999.0
08-09-2023, 00:11:30,    292,    0.0,   17.7,   0.00,   0.00, 1013.8,    0.3, -999.0
08-09-2023, 00:11:40,    292,    0.0,   17.7,   0.00,   0.00, 1013.8,    0.5, -999.0
08-09-2023, 00:11:50,    291,    0.0,   17.7,   0.00,   0.00, 1013.9,    0.2, -999.0
08-09-2023, 00:12:00,    292,    0.0,   17.7,   0.00,   0.00, 1013.9,    0.3, -999.0
08-09-2023, 00:12:10,    292,    0.0,   17.7,   0.00,   0.00, 1013.9,    0.3, -999.0
08-09-2023, 00:12:20,    292,    0.0,   17.8,   0.00,   0.00, 1013.9,    0.2, -999.0
08-09-2023, 00:12:30,    292,    0.0,   17.7,   0.00,   0.00, 1013.9,    0.2, -999.0
08-09-2023, 00:12:40,    292,    0.0,   17.7,   0.00,   0.00, 1013.9,    0.3, -999.0
08-09-2023, 00:12:50,    292,    0.0,   17.8,   0.00,   0.00, 1013.9,    0.2, -999.0
08-09-2023, 00:12:59,    291,    0.0,   17.7,   0.00,   0.00, 1013.9,    0.4, -999.0
08-09-2023, 00:13:10,    292,    0.0,   17.7,   0.00,   0.00, 1013.9,    0.3, -999.0
08-09-2023, 00:13:20,    292,    0.0,   17.7,   0.00,   0.00, 1013.9,    0.1, -999.0
08-09-2023, 00:13:29,    291,    0.0,   17.7,   0.00,   0.00, 1013.9,    0.2, -999.0
08-09-2023, 00:13:40,    292,    0.0,   17.6,   0.00,   0.00, 1013.9,    0.1, -999.0
08-09-2023, 00:13:50,    292,    0.0,   17.7,   0.00,   0.00, 1013.9,    0.1, -999.0
08-09-2023, 00:13:59,    292,    0.0,   17.7,   0.00,   0.00, 1013.9,    0.3, -999.0
08-09-2023, 00:14:09,    292,    0.0,   17.6,   0.00,   0.00, 1013.9,    0.2, -999.0
08-09-2023, 00:14:19,    292,    0.0,   17.6,   0.00,   0.00, 1013.9,    0.4, -999.0
08-09-2023, 00:14:29,    291,    0.0,   17.6,   0.00,   0.00, 1013.8,    0.2, -999.0
08-09-2023, 00:14:39,    292,    0.0,   17.7,   0.00,   0.00, 1013.8,    0.3, -999.0
08-09-2023, 00:14:49,    292,    0.0,   17.7,   0.00,   0.00, 1013.9,    0.3, -999.0
08-09-2023, 00:14:59,    292,    0.0,   17.7,   0.00,   0.00, 1013.9,    0.4, -999.0
08-09-2023, 00:15:09,    292,    0.0,   17.7,   0.00,   0.00, 1013.9,    0.2, -999.0
08-09-2023, 00:15:19,    292,    0.0,   17.7,   0.00,   0.00, 1013.8,    0.2, -999.0
08-09-2023, 00:15:29,    292,    0.0,   17.6,   0.00,   0.00, 1013.9,    0.3, -999.0
08-09-2023, 00:15:39,    292,    0.0,   17.6,   0.00,   0.00, 1013.9,    0.2, -999.0
08-09-2023, 00:15:49,    292,    0.0,   17.6,   0.00,   0.00, 1013.9,    0.3, -999.0
08-09-2023, 00:15:59,    292,    0.0,   17.6,   0.00,   0.00, 1013.9,    0.3, -999.0
08-09-2023, 00:16:09,    292,    0.0,   17.6,   0.00,   0.00, 1013.9,    0.2, -999.0
08-09-2023, 00:16:19,    292,    0.0,   17.5,   0.00,   0.00, 1013.9,    0.4, -999.0
08-09-2023, 00:16:29,    292,    0.0,   17.5,   0.00,   0.00, 1013.9,    0.1, -999.0
08-09-2023, 00:16:39,    292,    0.0,   17.5,   0.00,   0.00, 1013.9,    0.5, -999.0
08-09-2023, 00:16:49,    292,    0.0,   17.5,   0.00,   0.00, 1013.8,    0.1, -999.0
08-09-2023, 00:16:59,    291,    0.0,   17.5,   0.00,   0.00, 1013.8,    0.2, -999.0
08-09-2023, 00:17:09,    292,    0.0,   17.4,   0.00,   0.00, 1013.8,    0.3, -999.0
08-09-2023, 00:17:19,    292,    0.0,   17.5,   0.00,   0.00, 1013.8,    0.2, -999.0
08-09-2023, 00:17:29,    292,    0.0,   17.5,   0.00,   0.00, 1013.9,    0.2, -999.0
08-09-2023, 00:17:39,    292,    0.0,   17.5,   0.00,   0.00, 1013.8,    0.4, -999.0
08-09-2023, 00:17:49,    292,    0.0,   17.4,   0.00,   0.00, 1013.8,    0.3, -999.0
08-09-2023, 00:17:59,    291,    0.0,   17.4,   0.00,   0.00, 1013.9,    0.2, -999.0
08-09-2023, 00:18:08,    292,    0.0,   17.4,   0.00,   0.00, 1013.8,    0.3, -999.0
08-09-2023, 00:18:19,    292,    0.0,   17.4,   0.00,   0.00, 1013.8,    0.3, -999.0
08-09-2023, 00:18:29,    291,    0.0,   17.4,   0.00,   0.00, 1013.8,    0.3, -999.0
08-09-2023, 00:18:38,    292,    0.0,   17.4,   0.00,   0.00, 1013.8,    0.2, -999.0
08-09-2023, 00:18:48,    292,    0.0,   17.3,   0.00,   0.00, 1013.8,    0.2, -999.0
08-09-2023, 00:18:59,    292,    0.0,   17.3,   0.00,   0.00, 1013.8,    0.3, -999.0
08-09-2023, 00:19:08,    292,    0.0,   17.3,   0.00,   0.00, 1013.8,    0.2, -999.0
08-09-2023, 00:19:18,    292,    0.0,   17.3,   0.00,   0.00, 1013.8,    0.2, -999.0
08-09-2023, 00:19:28,    292,    0.0,   17.4,   0.00,   0.00, 1013.8,    0.3, -999.0
08-09-2023, 00:19:39,    292,    0.0,   17.4,   0.00,   0.00, 1013.8,    0.2, -999.0
08-09-2023, 00:19:48,    292,    0.0,   17.4,   0.00,   0.00, 1013.8,    0.2, -999.0
08-09-2023, 00:19:58,    292,    0.0,   17.5,   0.00,   0.00, 1013.8,    0.3, -999.0
08-09-2023, 00:20:08,    291,    0.0,   17.5,   0.00,   0.00, 1013.8,    0.3, -999.0
08-09-2023, 00:20:18,    292,    0.0,   17.4,   0.00,   0.00, 1013.8,    0.2, -999.0
08-09-2023, 00:20:28,    292,    0.0,   17.5,   0.00,   0.00, 1013.8,    0.3, -999.0
08-09-2023, 00:20:38,    292,    0.0,   17.5,   0.00,   0.00, 1013.8,    0.3, -999.0
08-09-2023, 00:20:48,    292,    0.0,   17.5,   0.00,   0.00, 1013.8,    0.2, -999.0
08-09-2023, 00:20:58,    292,    0.0,   17.6,   0.00,   0.00, 1013.8,    0.2, -999.0
08-09-2023, 00:21:08,    292,    0.0,   17.5,   0.00,   0.00, 1013.8,    0.2, -999.0
08-09-2023, 00:21:18,    292,    0.0,   17.7,   0.00,   0.00, 1013.9,    0.3, -999.0
08-09-2023, 00:21:28,    292,    0.0,   17.7,   0.00,   0.00, 1013.8,    0.2, -999.0
08-09-2023, 00:21:38,    292,    0.0,   17.6,   0.00,   0.00, 1013.8,    0.2, -999.0
08-09-2023, 00:21:48,    292,    0.0,   17.7,   0.00,   0.00, 1013.8,    0.2, -999.0
08-09-2023, 00:21:58,    292,    0.0,   17.7,   0.00,   0.00, 1013.8,    0.2, -999.0
08-09-2023, 00:22:08,    292,    0.0,   17.7,   0.00,   0.00, 1013.8,    0.2, -999.0
08-09-2023, 00:22:18,    291,    0.0,   17.8,   0.00,   0.00, 1013.8,    0.5, -999.0
08-09-2023, 00:22:28,    292,    0.0,   17.8,   0.00,   0.00, 1013.8,    0.3, -999.0
08-09-2023, 00:22:38,    292,    0.0,   17.8,   0.00,   0.00, 1013.8,    0.1, -999.0
08-09-2023, 00:22:48,    292,    0.0,   17.8,   0.00,   0.00, 1013.8,    0.3, -999.0
08-09-2023, 00:22:58,    292,    0.0,   17.8,   0.00,   0.00, 1013.8,    0.2, -999.0
08-09-2023, 00:23:08,    292,    0.0,   17.8,   0.00,   0.00, 1013.8,    0.2, -999.0
08-09-2023, 00:23:18,    292,    0.0,   17.8,   0.00,   0.00, 1013.8,    0.4, -999.0
08-09-2023, 00:23:28,    292,    0.0,   17.8,   0.00,   0.00, 1013.8,    0.4, -999.0
08-09-2023, 00:23:38,    292,    0.0,   17.9,   0.00,   0.00, 1013.8,    0.4, -999.0
08-09-2023, 00:23:48,    291,    0.0,   17.9,   0.00,   0.00, 1013.8,    0.3, -999.0
08-09-2023, 00:23:57,    292,    0.0,   17.8,   0.00,   0.00, 1013.8,    0.2, -999.0
08-09-2023, 00:24:08,    292,    0.0,   17.8,   0.00,   0.00, 1013.8,    0.2, -999.0
08-09-2023, 00:24:18,    291,    0.0,   17.9,   0.00,   0.00, 1013.8,    0.2, -999.0
08-09-2023, 00:24:27,    292,    0.0,   17.8,   0.00,   0.00, 1013.7,    0.2, -999.0
08-09-2023, 00:24:37,    292,    0.0,   17.8,   0.00,   0.00, 1013.8,    0.2, -999.0
08-09-2023, 00:24:48,    292,    0.0,   17.8,   0.00,   0.00, 1013.8,    0.4, -999.0
08-09-2023, 00:24:57,    291,    0.0,   17.8,   0.00,   0.00, 1013.7,    0.2, -999.0
08-09-2023, 00:25:07,    292,    0.0,   17.8,   0.00,   0.00, 1013.8,    0.3, -999.0
08-09-2023, 00:25:17,    292,    0.0,   17.8,   0.00,   0.00, 1013.8,    0.3, -999.0
08-09-2023, 00:25:27,    292,    0.0,   17.8,   0.00,   0.00, 1013.8,    0.4, -999.0
08-09-2023, 00:25:37,    292,    0.0,   17.7,   0.00,   0.00, 1013.7,    0.1, -999.0
08-09-2023, 00:25:47,    292,    0.0,   17.8,   0.00,   0.00, 1013.8,    0.2, -999.0
08-09-2023, 00:25:57,    292,    0.0,   17.7,   0.00,   0.00, 1013.7,    0.4, -999.0
08-09-2023, 00:26:07,    292,    0.0,   17.7,   0.00,   0.00, 1013.8,    0.3, -999.0
08-09-2023, 00:26:17,    292,    0.0,   17.7,   0.00,   0.00, 1013.8,    0.3, -999.0
08-09-2023, 00:26:27,    292,    0.0,   17.7,   0.00,   0.00, 1013.7,    0.3, -999.0
08-09-2023, 00:26:37,    291,    0.0,   17.7,   0.00,   0.00, 1013.8,    0.2, -999.0
08-09-2023, 00:26:47,    292,    0.0,   17.6,   0.00,   0.00, 1013.8,    0.2, -999.0
08-09-2023, 00:26:57,    292,    0.0,   17.7,   0.00,   0.00, 1013.8,    0.3, -999.0
08-09-2023, 00:27:07,    292,    0.0,   17.7,   0.00,   0.00, 1013.8,    0.2, -999.0
08-09-2023, 00:27:17,    292,    0.0,   17.7,   0.00,   0.00, 1013.8,    0.2, -999.0
08-09-2023, 00:27:27,    291,    0.0,   17.6,   0.00,   0.00, 1013.8,    0.2, -999.0
08-09-2023, 00:27:37,    292,    0.0,   17.6,   0.00,   0.00, 1013.8,    0.2, -999.0
08-09-2023, 00:27:47,    292,    0.0,   17.7,   0.00,   0.00, 1013.8,    0.3, -999.0
08-09-2023, 00:27:57,    292,    0.0,   17.6,   0.00,   0.00, 1013.8,    0.2, -999.0
08-09-2023, 00:28:07,    292,    0.0,   17.6,   0.00,   0.00, 1013.7,    0.3, -999.0
08-09-2023, 00:28:17,    292,    0.0,   17.6,   0.00,   0.00, 1013.8,    0.3, -999.0
08-09-2023, 00:28:27,    292,    0.0,   17.6,   0.00,   0.00, 1013.8,    0.2, -999.0
08-09-2023, 00:28:37,    292,    0.0,   17.6,   0.00,   0.00, 1013.8,    0.3, -999.0
08-09-2023, 00:28:47,    291,    0.0,   17.6,   0.00,   0.00, 1013.8,    0.3, -999.0
08-09-2023, 00:28:57,    292,    0.0,   17.6,   0.00,   0.00, 1013.8,    0.3, -999.0
08-09-2023, 00:29:07,    295,    0.0,   17.6,   0.00,   0.00, 1013.8,    0.3, -999.0
08-09-2023, 00:29:17,    291,    0.0,   17.6,   0.00,   0.00, 1013.8,    0.3, -999.0
08-09-2023, 00:29:27,    292,    0.0,   17.6,   0.00,   0.00, 1013.8,    0.3, -999.0
08-09-2023, 00:29:37,    292,    0.0,   17.6,   0.00,   0.00, 1013.8,    0.3, -999.0
08-09-2023, 00:29:46,    292,    0.0,   17.6,   0.00,   0.00, 1013.8,    0.3, -999.0
08-09-2023, 00:29:57,    292,    0.0,   17.6,   0.00,   0.00, 1013.8,    0.3, -999.0
08-09-2023, 00:30:07,    292,    0.0,   17.6,   0.00,   0.00, 1013.8,    0.2, -999.0
08-09-2023, 00:30:16,    292,    0.0,   17.5,   0.00,   0.00, 1013.8,    0.2, -999.0
08-09-2023, 00:30:26,    292,    0.0,   17.6,   0.00,   0.00, 1013.8,    0.4, -999.0
08-09-2023, 00:30:36,    292,    0.0,   17.7,   0.00,   0.00, 1013.8,    0.2, -999.0
08-09-2023, 00:30:46,    292,    0.0,   17.5,   0.00,   0.00, 1013.8,    0.2, -999.0
08-09-2023, 00:30:56,    291,    0.0,   17.5,   0.00,   0.00, 1013.8,    0.1, -999.0
08-09-2023, 00:31:06,    291,    0.0,   17.5,   0.00,   0.00, 1013.8,    0.4, -999.0
08-09-2023, 00:31:16,    292,    0.0,   17.6,   0.00,   0.00, 1013.8,    0.1, -999.0
08-09-2023, 00:31:26,    292,    0.0,   17.6,   0.00,   0.00, 1013.8,    0.4, -999.0
08-09-2023, 00:31:36,    292,    0.0,   17.6,   0.00,   0.00, 1013.8,    0.2, -999.0
08-09-2023, 00:31:46,    292,    0.0,   17.6,   0.00,   0.00, 1013.8,    0.3, -999.0
08-09-2023, 00:31:56,    292,    0.0,   17.5,   0.00,   0.00, 1013.8,    0.3, -999.0
08-09-2023, 00:32:06,    292,    0.0,   17.5,   0.00,   0.00, 1013.8,    0.2, -999.0
08-09-2023, 00:32:16,    292,    0.0,   17.5,   0.00,   0.00, 1013.8,    0.2, -999.0
08-09-2023, 00:32:26,    291,    0.0,   17.5,   0.00,   0.00, 1013.8,    0.2, -999.0
08-09-2023, 00:32:36,    292,    0.0,   17.5,   0.00,   0.00, 1013.8,    0.4, -999.0
08-09-2023, 00:32:46,    292,    0.0,   17.5,   0.00,   0.00, 1013.8,    0.2, -999.0
08-09-2023, 00:32:56,    292,    0.0,   17.5,   0.00,   0.00, 1013.8,    0.2, -999.0
08-09-2023, 00:33:06,    292,    0.0,   17.6,   0.00,   0.00, 1013.8,    0.3, -999.0
08-09-2023, 00:33:16,    292,    0.0,   17.6,   0.00,   0.00, 1013.7,    0.3, -999.0
08-09-2023, 00:33:26,    292,    0.0,   17.5,   0.00,   0.00, 1013.8,    0.3, -999.0
08-09-2023, 00:33:36,    292,    0.0,   17.5,   0.00,   0.00, 1013.8,    0.3, -999.0
08-09-2023, 00:33:46,    292,    0.0,   17.5,   0.00,   0.00, 1013.8,    0.2, -999.0
08-09-2023, 00:33:56,    292,    0.0,   17.5,   0.00,   0.00, 1013.8,    0.3, -999.0
08-09-2023, 00:34:06,    292,    0.0,   17.5,   0.00,   0.00, 1013.8,    0.3, -999.0
08-09-2023, 00:34:16,    292,    0.0,   17.6,   0.00,   0.00, 1013.8,    0.2, -999.0
08-09-2023, 00:34:25,    292,    0.0,   17.5,   0.00,   0.00, 1013.7,    0.2, -999.0
08-09-2023, 00:34:36,    292,    0.0,   17.6,   0.00,   0.00, 1013.7,    0.2, -999.0
08-09-2023, 00:34:46,    294,    0.0,   17.7,   0.00,   0.00, 1013.7,    0.5, -999.0
08-09-2023, 00:34:55,    291,    0.0,   17.6,   0.00,   0.00, 1013.8,    0.2, -999.0
08-09-2023, 00:35:05,    292,    0.0,   17.5,   0.00,   0.00, 1013.7,    0.4, -999.0
08-09-2023, 00:35:16,    292,    0.0,   17.6,   0.00,   0.00, 1013.7,    0.2, -999.0
08-09-2023, 00:35:25,    292,    0.0,   17.7,   0.00,   0.00, 1013.8,    0.2, -999.0
08-09-2023, 00:35:35,    292,    0.0,   17.7,   0.00,   0.00, 1013.7,    0.3, -999.0
08-09-2023, 00:35:46,    292,    0.0,   17.7,   0.00,   0.00, 1013.7,    0.2, -999.0
08-09-2023, 00:35:56,    292,    0.0,   17.7,   0.00,   0.00, 1013.7,    0.2, -999.0
08-09-2023, 00:36:05,    292,    0.0,   17.6,   0.00,   0.00, 1013.8,    0.3, -999.0
08-09-2023, 00:36:15,    292,    0.0,   17.7,   0.00,   0.00, 1013.7,    0.3, -999.0
08-09-2023, 00:36:25,    291,    0.0,   17.6,   0.00,   0.00, 1013.7,    0.3, -999.0
08-09-2023, 00:36:35,    291,    0.0,   17.7,   0.00,   0.00, 1013.7,    0.3, -999.0
08-09-2023, 00:36:45,    291,    0.0,   17.7,   0.00,   0.00, 1013.8,    0.1, -999.0
08-09-2023, 00:36:55,    292,    0.0,   17.7,   0.00,   0.00, 1013.7,    0.1, -999.0
08-09-2023, 00:37:05,    292,    0.0,   17.6,   0.00,   0.00, 1013.7,    0.3, -999.0
08-09-2023, 00:37:15,    292,    0.0,   17.7,   0.00,   0.00, 1013.7,    0.4, -999.0
08-09-2023, 00:37:25,    292,    0.0,   17.5,   0.00,   0.00, 1013.7,    0.3, -999.0
08-09-2023, 00:37:35,    292,    0.0,   17.6,   0.00,   0.00, 1013.7,    0.2, -999.0
08-09-2023, 00:37:45,    292,    0.0,   17.7,   0.00,   0.00, 1013.7,    0.1, -999.0
08-09-2023, 00:37:55,    292,    0.0,   17.6,   0.00,   0.00, 1013.7,    0.2, -999.0
08-09-2023, 00:38:05,    292,    0.0,   17.6,   0.00,   0.00, 1013.7,    0.2, -999.0
08-09-2023, 00:38:15,    292,    0.0,   17.6,   0.00,   0.00, 1013.7,    0.3, -999.0
08-09-2023, 00:38:25,    292,    0.0,   17.6,   0.00,   0.00, 1013.7,    0.2, -999.0
08-09-2023, 00:38:35,    292,    0.0,   17.7,   0.00,   0.00, 1013.7,    0.2, -999.0
08-09-2023, 00:38:45,    291,    0.0,   17.7,   0.00,   0.00, 1013.7,    0.3, -999.0
08-09-2023, 00:38:55,    291,    0.0,   17.6,   0.00,   0.00, 1013.7,    0.3, -999.0
08-09-2023, 00:39:05,    291,    0.0,   17.7,   0.00,   0.00, 1013.8,    0.3, -999.0
08-09-2023, 00:39:15,    292,    0.0,   17.7,   0.00,   0.00, 1013.8,    0.2, -999.0
08-09-2023, 00:39:25,    292,    0.0,   17.6,   0.00,   0.00, 1013.7,    0.3, -999.0
08-09-2023, 00:39:35,    292,    0.0,   17.6,   0.00,   0.00, 1013.7,    0.2, -999.0
08-09-2023, 00:39:45,    291,    0.0,   17.6,   0.00,   0.00, 1013.7,    0.3, -999.0
08-09-2023, 00:39:55,    291,    0.0,   17.6,   0.00,   0.00, 1013.8,    0.3, -999.0
08-09-2023, 00:40:05,    292,    0.0,   17.7,   0.00,   0.00, 1013.7,    0.2, -999.0
08-09-2023, 00:40:14,    292,    0.0,   17.6,   0.00,   0.00, 1013.7,    0.2, -999.0
08-09-2023, 00:40:25,    292,    0.0,   17.6,   0.00,   0.00, 1013.7,    0.3, -999.0
08-09-2023, 00:40:35,    292,    0.0,   17.6,   0.00,   0.00, 1013.8,    0.1, -999.0
08-09-2023, 00:40:44,    292,    0.0,   17.6,   0.00,   0.00, 1013.7,    0.3, -999.0
08-09-2023, 00:40:54,    292,    0.0,   17.6,   0.00,   0.00, 1013.7,    0.4, -999.0
08-09-2023, 00:41:05,    292,    0.0,   17.6,   0.00,   0.00, 1013.7,    0.2, -999.0
08-09-2023, 00:41:14,    292,    0.0,   17.6,   0.00,   0.00, 1013.7,    0.3, -999.0
08-09-2023, 00:41:24,    292,    0.0,   17.6,   0.00,   0.00, 1013.7,    0.2, -999.0
08-09-2023, 00:41:34,    292,    0.0,   17.6,   0.00,   0.00, 1013.8,    0.2, -999.0
08-09-2023, 00:41:45,    291,    0.0,   17.6,   0.00,   0.00, 1013.7,    0.3, -999.0
08-09-2023, 00:41:54,    291,    0.0,   17.6,   0.00,   0.00, 1013.7,    0.2, -999.0
08-09-2023, 00:42:04,    291,    0.0,   17.6,   0.00,   0.00, 1013.7,    0.2, -999.0
08-09-2023, 00:42:14,    292,    0.0,   17.4,   0.00,   0.00, 1013.7,    0.3, -999.0
08-09-2023, 00:42:24,    292,    0.0,   17.5,   0.00,   0.00, 1013.8,    0.3, -999.0
08-09-2023, 00:42:34,    291,    0.0,   17.5,   0.00,   0.00, 1013.7,    0.4, -999.0
08-09-2023, 00:42:44,    292,    0.0,   17.6,   0.00,   0.00, 1013.7,    0.2, -999.0
08-09-2023, 00:42:54,    292,    0.0,   17.5,   0.00,   0.00, 1013.7,    0.2, -999.0
08-09-2023, 00:43:04,    292,    0.0,   17.6,   0.00,   0.00, 1013.8,    0.2, -999.0
08-09-2023, 00:43:14,    292,    0.0,   17.5,   0.00,   0.00, 1013.8,    0.3, -999.0
08-09-2023, 00:43:24,    292,    0.0,   17.5,   0.00,   0.00, 1013.7,    0.2, -999.0
08-09-2023, 00:43:34,    292,    0.0,   17.5,   0.00,   0.00, 1013.8,    0.2, -999.0
08-09-2023, 00:43:44,    292,    0.0,   17.5,   0.00,   0.00, 1013.8,    0.3, -999.0
08-09-2023, 00:43:54,    291,    0.0,   17.5,   0.00,   0.00, 1013.7,    0.2, -999.0
08-09-2023, 00:44:04,    292,    0.0,   17.5,   0.00,   0.00, 1013.7,    0.2, -999.0
08-09-2023, 00:44:14,    291,    0.0,   17.5,   0.00,   0.00, 1013.7,    0.3, -999.0
08-09-2023, 00:44:24,    292,    0.0,   17.5,   0.00,   0.00, 1013.7,    0.3, -999.0
08-09-2023, 00:44:34,    292,    0.0,   17.4,   0.00,   0.00, 1013.8,    0.2, -999.0
08-09-2023, 00:44:44,    292,    0.0,   17.5,   0.00,   0.00, 1013.8,    0.3, -999.0
08-09-2023, 00:44:54,    292,    0.0,   17.5,   0.00,   0.00, 1013.7,    0.2, -999.0
08-09-2023, 00:45:04,    292,    0.0,   17.4,   0.00,   0.00, 1013.8,    0.2, -999.0
08-09-2023, 00:45:14,    292,    0.0,   17.5,   0.00,   0.00, 1013.7,    0.3, -999.0
08-09-2023, 00:45:23,    292,    0.0,   17.5,   0.00,   0.00, 1013.7,    0.1, -999.0
08-09-2023, 00:45:34,    291,    0.0,   17.5,   0.00,   0.00, 1013.7,    0.2, -999.0
08-09-2023, 00:45:44,    289,    0.0,   17.5,   0.00,   0.00, 1013.7,    0.2, -999.0
08-09-2023, 00:45:54,    292,    0.0,   17.5,   0.00,   0.00, 1013.8,    0.2, -999.0
08-09-2023, 00:46:03,    291,    0.0,   17.5,   0.00,   0.00, 1013.8,    0.5, -999.0
08-09-2023, 00:46:14,    292,    0.0,   17.5,   0.00,   0.00, 1013.7,    0.4, -999.0
08-09-2023, 00:46:24,    291,    0.0,   17.5,   0.00,   0.00, 1013.7,    0.2, -999.0
08-09-2023, 00:46:33,    291,    0.0,   17.5,   0.00,   0.00, 1013.7,    0.2, -999.0
08-09-2023, 00:46:43,    291,    0.0,   17.6,   0.00,   0.00, 1013.7,    0.2, -999.0